GSAT0220 (GALILEO 24)

Last updated on Thu Oct 10 2024 00:02:28 GMT+0000 (Coordinated Universal Time)

1 43567U 18060D 24282.05200459 -.00000079 00000+0 00000+0 0 9998 2 43567 57.3017 358.4368 0004008 261.8115 98.1990 1.70476155 38657
UTC large
Height (km)
Speed (km/s)
/
Latitude / Longitude
Inclination (degrees)
Orbital Period (minutes)
Azimuth
Elevation
Range (km)
Doppler Factor

Next 0 passes for location: London (51.5072 / 0.1276)

Sorry there are no passes over London.